When you browse on this site, cookies collect data to enhance your experience and personalize the content and advertising you see.
Visit our Privacy Policy to learn more. By continuing to use the site, you agree to this use of cookies and data.
  • In Sweden
  • List of Countries
  • For 7 days
  • Water Temperature
  • Satellite Maps
  • Weather Map
  • Weather Widgets
  • user-avatar
    Login

    Hourly Weather Ilincy

    Today, 24 June, Monday

    Time Temperature Precipitation Wind Pressure Humidity
    00:00 +20°C° 0 mm 2 mps 741 mmHg 83%
    01:00 +19°C° 0 mm 2 mps 741 mmHg 84%
    02:00 +19°C° 0 mm 2 mps 742 mmHg 85%
    03:00 +18°C° 0 mm 2 mps 742 mmHg 88%
    04:00 +18°C° 0 mm 2 mps 742 mmHg 91%
    05:00 +18°C° 0 mm 3 mps 742 mmHg 94%
    06:00 +20°C° 0 mm 3 mps 742 mmHg 92%
    07:00 +21°C° 0 mm 4 mps 742 mmHg 90%
    08:00 +22°C° 0 mm 4 mps 743 mmHg 88%
    09:00 +23°C° 0.5 mm 4 mps 743 mmHg 84%
    10:00 +25°C° 0.5 mm 4 mps 743 mmHg 80%
    11:00 +26°C° 0.5 mm 4 mps 743 mmHg 76%
    12:00 +27°C° 0.6 mm 4 mps 743 mmHg 75%
    13:00 +27°C° 0.6 mm 4 mps 744 mmHg 74%
    14:00 +28°C° 0.6 mm 4 mps 744 mmHg 73%
    15:00 +27°C° 2.3 mm 4 mps 744 mmHg 76%
    16:00 +27°C° 2.3 mm 4 mps 744 mmHg 78%
    17:00 +26°C° 2.3 mm 4 mps 744 mmHg 81%
    18:00 +25°C° 0.6 mm 4 mps 744 mmHg 83%
    19:00 +23°C° 0.6 mm 4 mps 744 mmHg 86%
    20:00 +22°C° 0.6 mm 4 mps 744 mmHg 89%
    21:00 +21°C° 0.2 mm 4 mps 744 mmHg 91%
    22:00 +21°C° 0.2 mm 4 mps 745 mmHg 93%
    23:00 +20°C° 0.2 mm 5 mps 745 mmHg 95%

    Tomorrow, 25 June, Tuesday

    Time Temperature Precipitation Wind Pressure Humidity
    00:00 +20°C° 0 mm 5 mps 745 mmHg 95%
    01:00 +20°C° 0 mm 5 mps 745 mmHg 95%
    02:00 +19°C° 0 mm 5 mps 745 mmHg 95%
    03:00 +19°C° 0 mm 5 mps 745 mmHg 95%
    04:00 +17°C° 0 mm 5 mps 745 mmHg 94%
    05:00 +16°C° 0 mm 5 mps 745 mmHg 94%
    06:00 +19°C° 0 mm 6 mps 746 mmHg 91%
    07:00 +20°C° 0 mm 6 mps 746 mmHg 88%
    08:00 +21°C° 0 mm 6 mps 747 mmHg 85%
    09:00 +22°C° 0 mm 6 mps 747 mmHg 80%
    10:00 +23°C° 0 mm 6 mps 747 mmHg 76%
    11:00 +24°C° 0 mm 7 mps 747 mmHg 71%
    12:00 +26°C° 0 mm 6 mps 747 mmHg 75%
    13:00 +26°C° 0 mm 6 mps 747 mmHg 73%
    14:00 +27°C° 0 mm 6 mps 747 mmHg 71%
    15:00 +26°C° 0 mm 6 mps 747 mmHg 71%
    16:00 +26°C° 0 mm 6 mps 747 mmHg 71%
    17:00 +26°C° 0 mm 6 mps 747 mmHg 71%
    18:00 +23°C° 0 mm 5 mps 747 mmHg 75%
    19:00 +22°C° 0 mm 4 mps 748 mmHg 79%
    20:00 +20°C° 0 mm 4 mps 748 mmHg 83%
    21:00 +19°C° 0 mm 4 mps 748 mmHg 86%
    22:00 +19°C° 0 mm 4 mps 748 mmHg 89%
    23:00 +18°C° 0 mm 4 mps 748 mmHg 92%

    Day after tomorrow, 26 June, Wednesday

    Time Temperature Precipitation Wind Pressure Humidity
    00:00 +17°C° 0 mm 3 mps 748 mmHg 92%
    01:00 +17°C° 0 mm 3 mps 748 mmHg 93%
    02:00 +16°C° 0 mm 3 mps 748 mmHg 93%
    03:00 +16°C° 0 mm 3 mps 748 mmHg 93%
    04:00 +16°C° 0 mm 3 mps 748 mmHg 92%
    05:00 +14°C° 0 mm 3 mps 748 mmHg 92%
    06:00 +17°C° 0 mm 3 mps 749 mmHg 87%
    07:00 +18°C° 0 mm 3 mps 749 mmHg 82%
    08:00 +20°C° 0 mm 3 mps 749 mmHg 78%
    09:00 +21°C° 0 mm 3 mps 749 mmHg 72%
    10:00 +22°C° 0 mm 3 mps 749 mmHg 66%
    11:00 +25°C° 0 mm 3 mps 749 mmHg 60%
    12:00 +25°C° 0 mm 3 mps 748 mmHg 58%
    13:00 +25°C° 0 mm 3 mps 748 mmHg 56%
    14:00 +26°C° 0 mm 2 mps 748 mmHg 55%
    15:00 +26°C° 0 mm 2 mps 747 mmHg 56%
    16:00 +25°C° 0 mm 2 mps 747 mmHg 58%
    17:00 +25°C° 0 mm 2 mps 747 mmHg 59%
    18:00 +24°C° 0 mm 2 mps 746 mmHg 64%
    19:00 +22°C° 0 mm 1 mps 746 mmHg 68%
    20:00 +20°C° 0 mm 1 mps 746 mmHg 73%
    21:00 +19°C° 0 mm 1 mps 746 mmHg 74%
    22:00 +18°C° 0 mm 1 mps 745 mmHg 75%
    23:00 +18°C° 0 mm 1 mps 745 mmHg 77%

    27 June, Thursday

    Time Temperature Precipitation Wind Pressure Humidity
    00:00 +16°C° 0 mm 1 mps 745 mmHg 78%
    01:00 +16°C° 0 mm 1 mps 745 mmHg 80%
    02:00 +15°C° 0 mm 1 mps 744 mmHg 82%
    03:00 +15°C° 0 mm 1 mps 744 mmHg 83%
    04:00 +15°C° 0 mm 1 mps 743 mmHg 84%
    05:00 +15°C° 0 mm 1 mps 743 mmHg 85%
    06:00 +17°C° 0 mm 2 mps 743 mmHg 81%
    07:00 +19°C° 0 mm 3 mps 742 mmHg 77%
    08:00 +21°C° 0 mm 3 mps 742 mmHg 73%
    09:00 +22°C° 0 mm 4 mps 741 mmHg 71%
    10:00 +23°C° 0 mm 4 mps 741 mmHg 68%
    11:00 +25°C° 0 mm 4 mps 741 mmHg 65%
    12:00 +26°C° 0 mm 5 mps 740 mmHg 65%
    13:00 +27°C° 0 mm 5 mps 739 mmHg 65%
    14:00 +28°C° 0 mm 5 mps 738 mmHg 65%
    15:00 +28°C° 0.4 mm 4 mps 738 mmHg 69%
    16:00 +27°C° 0.4 mm 4 mps 737 mmHg 74%
    17:00 +27°C° 0.4 mm 4 mps 736 mmHg 78%
    18:00 +26°C° 1.5 mm 4 mps 736 mmHg 81%
    19:00 +25°C° 1.5 mm 4 mps 736 mmHg 84%
    20:00 +23°C° 1.5 mm 4 mps 735 mmHg 87%
    21:00 +22°C° 0.2 mm 4 mps 735 mmHg 88%
    22:00 +21°C° 0.2 mm 5 mps 735 mmHg 89%
    23:00 +20°C° 0.2 mm 5 mps 735 mmHg 91%

    28 June, Friday

    Time Temperature Precipitation Wind Pressure Humidity
    00:00 +19°C° 0 mm 5 mps 735 mmHg 92%
    01:00 +19°C° 0 mm 5 mps 735 mmHg 94%
    02:00 +17°C° 0 mm 5 mps 735 mmHg 96%
    03:00 +16°C° 0 mm 5 mps 735 mmHg 95%
    04:00 +16°C° 0 mm 5 mps 735 mmHg 94%
    05:00 +15°C° 0 mm 5 mps 735 mmHg 93%
    06:00 +15°C° 0 mm 6 mps 736 mmHg 87%
    07:00 +16°C° 0 mm 6 mps 736 mmHg 81%
    08:00 +16°C° 0 mm 7 mps 736 mmHg 75%
    09:00 +17°C° 0 mm 7 mps 736 mmHg 71%
    10:00 +18°C° 0 mm 7 mps 736 mmHg 66%
    11:00 +20°C° 0 mm 7 mps 737 mmHg 62%
    12:00 +20°C° 0 mm 7 mps 736 mmHg 61%
    13:00 +21°C° 0 mm 7 mps 736 mmHg 61%
    14:00 +21°C° 0 mm 7 mps 736 mmHg 60%
    15:00 +21°C° 0 mm 7 mps 736 mmHg 62%
    16:00 +20°C° 0 mm 7 mps 736 mmHg 65%
    17:00 +20°C° 0 mm 6 mps 736 mmHg 68%
    18:00 +19°C° 0 mm 5 mps 736 mmHg 73%
    19:00 +18°C° 0 mm 4 mps 736 mmHg 78%
    20:00 +16°C° 0 mm 3 mps 736 mmHg 83%
    21:00 +16°C° 0 mm 3 mps 736 mmHg 85%
    22:00 +14°C° 0 mm 3 mps 736 mmHg 86%
    23:00 +14°C° 0 mm 4 mps 736 mmHg 88%

    29 June, Saturday

    Time Temperature Precipitation Wind Pressure Humidity
    00:00 +13°C° 0 mm 4 mps 736 mmHg 87%
    01:00 +13°C° 0 mm 5 mps 736 mmHg 86%
    02:00 +13°C° 0 mm 6 mps 736 mmHg 86%
    03:00 +11°C° 0 mm 6 mps 736 mmHg 86%
    04:00 +10°C° 0 mm 6 mps 736 mmHg 87%
    05:00 +10°C° 0 mm 6 mps 737 mmHg 88%
    06:00 +10°C° 0 mm 6 mps 737 mmHg 83%
    07:00 +11°C° 0 mm 7 mps 737 mmHg 79%
    08:00 +12°C° 0 mm 8 mps 737 mmHg 74%
    09:00 +13°C° 0 mm 8 mps 738 mmHg 69%
    10:00 +15°C° 0 mm 8 mps 738 mmHg 64%
    11:00 +15°C° 0 mm 8 mps 738 mmHg 59%
    12:00 +16°C° 0 mm 9 mps 738 mmHg 58%
    13:00 +16°C° 0 mm 9 mps 738 mmHg 56%
    14:00 +17°C° 0 mm 9 mps 737 mmHg 55%
    15:00 +17°C° 0 mm 9 mps 737 mmHg 56%
    16:00 +16°C° 0 mm 8 mps 737 mmHg 57%
    17:00 +16°C° 0 mm 8 mps 737 mmHg 59%
    18:00 +15°C° 0 mm 7 mps 737 mmHg 63%
    19:00 +14°C° 0 mm 6 mps 738 mmHg 67%
    20:00 +13°C° 0 mm 6 mps 738 mmHg 71%
    21:00 +12°C° 0 mm 5 mps 738 mmHg 74%
    22:00 +10°C° 0 mm 5 mps 738 mmHg 78%
    23:00 +9°C° 0 mm 5 mps 739 mmHg 81%
    Show more